Theta_e
294 293 293 293 293 293 293 292 292 292 292 292 291 292 292 292 291 287 283 287 284 277 277 278 278 272 271 269 267 267 270 265 262 261 259 259 265 267 265 268 268 265 267 268 270 269 267 276 275 271 273 276 275 274
293 293 293 293 293 293 292 292 292 292 292 292 291 291 291 292 291 291 283 286 287 281 279 282 282 283 281 278 277 274 269 263 269 260 260 267 264 265 258 259 273 267 270 267 269 270 275 276 275 277 277 276 275 273
293 292 292 292 292 292 292 292 292 292 291 290 290 291 291 291 292 291 286 282 284 280 278 278 276 281 283 282 283 273 269 276 268 274 266 264 264 267 266 260 263 273 276 271 268 273 273 273 273 273 274 273 273 272
292 292 292 292 292 292 292 291 291 291 291 290 290 290 291 291 292 292 279 282 282 277 267 271 280 279 282 283 282 282 280 279 277 274 270 266 264 275 271 271 270 271 273 268 270 273 272 270 269 270 271 271 270 270
292 292 291 291 291 291 291 291 291 291 290 290 290 290 290 291 292 284 280 285 283 279 270 268 278 279 278 278 281 281 281 274 275 273 269 268 269 272 273 270 267 268 265 268 267 267 268 269 268 267 267 266 267 266
292 292 291 291 291 291 290 290 290 289 289 289 290 290 290 290 291 279 270 282 283 283 267 263 271 272 275 276 279 279 278 275 277 270 267 269 277 275 268 262 265 265 263 261 262 262 264 267 266 264 264 264 264 263
292 291 291 291 290 290 290 290 290 289 289 289 289 289 289 290 282 271 271 281 286 285 267 262 262 268 271 271 267 266 271 272 274 270 268 267 270 272 268 266 262 260 260 260 260 260 264 263 263 262 263 262 261 260
291 291 291 291 290 290 290 289 289 289 289 289 289 288 287 286 284 276 278 284 281 269 263 255 259 262 266 261 263 263 264 264 266 263 258 260 262 258 259 258 259 259 259 261 259 258 258 260 260 260 260 259 257 258
291 291 290 290 290 289 289 289 288 288 288 288 286 285 279 271 265 268 284 280 273 267 256 250 251 254 263 258 260 264 263 260 257 259 258 260 252 258 255 256 256 256 256 256 257 257 257 256 257 258 256 254 254 255
290 290 290 290 290 289 289 288 288 288 287 284 274 266 261 265 282 277 266 261 260 254 254 251 249 252 261 257 256 259 259 256 255 257 260 257 254 252 256 254 254 255 256 256 251 253 250 252 254 254 254 254 254 254
290 290 291 291 289 289 287 286 287 286 281 267 263 258 268 276 266 257 255 255 251 253 247 246 249 250 259 252 249 258 253 253 253 256 255 250 253 251 251 253 256 256 255 254 254 255 254 253 252 252 253 253 253 252
290 290 291 291 289 286 285 286 286 279 276 273 276 269 262 257 255 256 247 249 248 253 246 249 250 252 250 255 249 251 251 253 252 248 253 251 254 251 250 251 252 252 252 251 249 251 251 251 251 251 251 250 250 251
290 290 290 291 289 285 286 286 285 283 274 264 260 257 256 253 255 252 249 250 250 244 243 244 248 248 249 251 245 248 250 252 248 248 251 252 249 249 250 249 249 250 248 247 248 249 250 250 250 248 249 250 249 248
290 290 290 291 286 284 286 285 282 273 260 257 256 256 256 252 252 251 252 252 251 248 245 247 242 246 242 247 243 247 248 247 247 247 250 248 250 250 248 245 243 252 250 250 251 252 252 252 252 252 251 251 250 249
290 290 290 287 285 284 285 281 274 261 257 259 257 258 253 252 243 241 238 244 245 249 250 245 244 248 242 244 243 245 247 246 249 252 249 252 251 248 250 251 251 252 252 252 253 253 253 253 254 254 254 253 251 250
291 289 283 285 283 283 278 270 260 255 252 255 251 253 245 250 248 242 240 243 244 249 246 245 241 243 243 242 245 247 245 248 251 246 250 247 248 250 251 253 252 252 252 252 252 252 252 253 252 252 252 252 251 250
290 279 284 283 281 276 272 258 256 251 256 252 255 243 251 250 254 251 248 248 249 247 246 241 246 250 244 242 243 245 249 251 250 249 246 246 250 251 250 249 250 249 251 251 252 252 252 251 250 250 249 250 250 250
284 278 283 281 273 267 253 252 253 252 257 251 252 250 248 249 248 247 246 247 248 243 243 246 244 242 245 245 248 250 248 247 244 248 250 251 247 248 247 249 251 252 252 252 253 252 251 250 249 250 250 251 251 252
280 278 281 279 270 260 255 251 252 256 253 247 248 248 247 248 244 246 246 245 243 241 244 239 240 244 248 248 250 247 244 245 248 249 250 250 250 248 250 248 250 251 252 252 252 252 251 251 251 251 251 252 251 252
283 280 278 276 269 260 254 252 249 252 253 249 248 248 249 248 245 244 243 242 243 243 242 242 247 249 250 251 251 251 250 248 245 246 251 250 247 245 246 250 252 251 252 252 252 252 251 251 252 252 252 252 251 251
273 273 270 262 256 254 249 249 249 251 249 250 247 249 246 246 247 247 246 241 243 246 247 250 248 247 244 242 243 243 245 246 248 250 249 247 248 247 247 250 249 249 249 250 250 250 251 251 252 252 252 252 252 253
267 271 260 260 254 248 248 245 250 250 250 248 248 248 247 246 247 246 242 244 245 249 249 249 247 247 244 246 250 246 246 244 242 243 246 247 245 246 247 247 249 249 249 250 250 250 251 252 252 252 252 252 253 253
268 264 257 255 253 247 248 246 249 250 251 250 246 248 248 247 244 243 244 246 248 249 249 248 247 242 244 240 240 240 242 244 244 243 243 245 247 245 245 245 245 248 248 249 249 251 251 252 252 252 253 253 252 252
265 261 258 254 247 250 244 246 249 250 249 249 250 251 247 247 242 244 247 251 251 243 244 247 246 246 243 241 243 246 245 244 241 239 240 242 243 244 243 245 244 245 248 251 251 251 250 250 252 253 253 252 251 252
263 258 255 253 248 250 250 250 250 249 251 252 251 249 246 244 248 248 249 254 252 249 250 247 247 251 251 245 242 243 239 244 245 244 242 244 241 241 243 243 245 246 245 245 248 248 249 250 252 253 253 252 251 252
261 254 253 255 252 252 255 254 251 252 254 251 250 244 245 249 249 252 255 255 255 254 251 251 252 248 247 248 245 243 246 243 241 242 242 242 244 244 242 241 242 245 245 247 247 247 248 249 251 252 252 252 253 252
258 253 248 246 248 251 252 251 250 252 254 253 250 246 248 251 254 258 258 256 256 256 254 254 256 256 256 251 247 243 238 244 246 244 240 241 242 243 244 243 243 245 245 246 247 247 247 247 250 252 252 252 253 253
250 250 252 251 250 251 252 254 254 253 255 253 251 249 252 255 259 258 257 255 253 253 252 251 249 251 252 251 251 246 239 235 237 238 238 237 235 236 239 241 240 252 246 245 245 245 248 251 248 248 249 250 252 254
251 248 248 248 251 250 250 252 255 254 252 254 254 256 257 258 256 256 256 253 253 254 254 254 250 247 248 247 247 246 244 245 247 246 245 244 240 244 240 237 238 239 240 239 246 253 256 252 249 247 247 247 250 251
251 248 248 251 253 255 257 253 253 249 249 249 248 249 251 253 255 253 252 252 251 251 253 250 249 250 251 251 251 250 244 243 246 247 248 246 246 241 237 237 238 237 237 236 239 241 250 246 248 245 246 247 247 248
249 248 248 250 252 256 252 249 247 246 246 246 246 246 248 248 249 251 251 250 249 250 249 250 249 249 249 249 249 250 251 246 245 246 240 240 240 238 236 237 237 236 235 236 238 239 241 241 240 241 242 244 244 246
250 250 250 251 254 253 250 250 250 249 248 247 248 245 247 248 250 254 252 250 253 252 251 250 249 250 250 250 249 249 250 246 243 246 245 243 242 240 239 238 237 237 239 243 240 241 240 241 240 240 240 240 240 241
250 250 249 248 250 253 251 250 250 250 250 250 251 249 249 248 251 254 253 251 250 249 249 249 249 249 249 249 249 249 250 249 246 252 251 251 248 246 240 239 237 239 242 244 246 245 243 241 241 240 240 240 240 240
Wind_Speed
23 23 21 22 23 24 24 25 23 22 23 24 26 27 26 27 24 13 6 7 3 5 16 10 12 10 2 2 5 5 4 5 4 2 4 4 3 2 3 5 3 1 3 4 6 5 2 15 5 6 5 4 2 0
21 23 23 22 22 23 24 25 25 24 25 26 25 28 27 27 24 20 6 3 5 8 14 3 10 16 14 9 4 3 4 3 4 4 2 1 3 2 4 5 4 4 2 1 4 3 1 6 10 6 3 2 2 4
22 22 23 23 23 24 25 25 25 25 24 24 26 27 28 28 27 21 2 3 5 3 3 2 3 3 3 7 5 4 3 5 1 3 3 4 4 1 3 6 2 3 3 3 4 4 4 4 6 7 7 6 5 6
21 21 23 23 23 24 24 25 25 26 25 25 26 28 28 28 26 21 1 0 4 3 1 6 3 3 7 5 10 9 9 2 2 2 2 4 3 5 4 5 4 5 4 4 3 6 6 3 4 4 4 5 7 7
20 21 22 23 23 23 24 25 25 25 25 25 26 28 28 27 24 5 1 3 3 4 3 5 4 4 7 8 5 5 7 3 2 2 2 5 3 2 5 2 4 2 3 3 3 5 4 5 5 5 3 5 7 11
21 20 21 22 23 23 23 25 25 25 25 26 26 27 27 24 16 3 5 2 6 4 1 3 3 4 6 7 4 3 4 3 3 3 4 3 4 4 3 3 6 7 6 4 2 4 4 7 6 8 6 7 8 9
22 21 20 21 22 23 23 24 24 25 27 27 27 27 23 17 3 3 5 7 16 2 3 5 6 4 6 3 3 3 3 1 2 2 3 2 3 2 1 2 4 4 4 3 4 7 3 3 2 10 8 9 9 8
21 21 20 22 22 23 23 23 23 25 27 28 28 24 15 5 5 1 3 13 5 4 5 3 6 6 7 5 4 2 3 3 3 1 3 1 3 2 2 2 2 4 5 3 5 3 5 8 9 6 4 6 8 11
20 19 19 21 23 22 23 22 23 26 27 28 24 13 3 6 4 4 19 5 5 5 4 4 3 5 7 3 3 4 2 3 2 0 2 3 3 4 1 1 0 1 1 5 8 8 7 6 9 8 5 5 8 11
21 19 20 18 21 22 24 21 23 25 26 20 6 6 5 3 15 7 9 6 7 7 6 3 2 4 4 4 5 4 2 1 2 4 3 2 4 2 3 4 4 4 4 2 4 6 4 5 6 9 10 9 9 11
21 21 21 17 19 20 21 19 23 21 10 5 5 1 4 12 5 6 4 5 4 5 3 2 2 2 4 2 4 2 3 2 2 6 2 3 5 4 4 6 6 6 6 6 6 9 8 10 12 13 13 11 11 11
21 22 20 16 15 13 15 21 20 4 1 5 8 4 5 6 5 7 2 4 4 4 4 1 2 1 5 3 3 4 2 3 6 2 4 5 3 3 4 8 8 7 7 9 6 10 11 11 12 12 12 11 12 12
21 22 20 16 12 8 16 19 16 16 8 4 5 5 4 4 4 6 4 5 2 3 3 2 3 1 5 4 2 4 2 6 1 4 6 5 3 5 8 5 8 7 7 6 9 8 11 12 10 9 14 13 12 11
20 22 20 17 6 8 16 16 14 6 5 3 4 5 5 4 6 7 6 6 3 4 3 2 2 2 1 4 0 2 5 3 4 2 7 3 6 6 5 4 2 9 6 8 11 12 13 13 14 13 13 12 12 13
19 21 21 7 6 8 11 9 7 4 4 3 4 6 8 2 1 1 1 3 2 2 3 3 3 2 3 3 1 3 6 5 7 6 4 5 6 4 5 5 7 8 8 9 11 11 13 14 14 14 12 11 11 12
19 15 5 9 5 6 7 7 5 4 4 3 1 1 1 2 2 1 2 2 3 4 3 4 3 4 4 3 2 8 4 8 5 5 5 2 5 5 6 7 7 8 9 11 11 12 12 12 12 14 14 13 13 12
18 4 11 8 6 11 8 4 3 4 4 4 5 0 1 1 2 3 4 4 4 4 3 4 3 10 2 2 5 6 8 5 5 4 4 5 6 7 6 6 7 7 10 10 11 11 11 9 9 11 14 13 12 12
5 6 13 11 9 5 4 4 4 3 7 2 3 3 2 1 3 2 2 3 5 4 4 6 5 3 7 7 6 6 5 4 4 4 4 5 5 6 5 8 8 8 10 10 10 10 10 9 10 10 12 12 12 12
8 10 14 13 7 5 3 3 2 5 4 1 1 1 1 2 1 2 3 2 2 2 7 3 4 6 7 6 6 4 3 4 4 3 4 5 5 5 6 4 6 7 8 10 10 8 8 10 10 10 9 9 9 10
20 16 13 14 5 4 2 3 1 2 3 2 1 2 2 2 3 3 3 2 2 3 2 5 10 7 7 5 6 5 4 3 3 3 4 2 3 2 5 5 5 7 7 8 7 9 7 8 7 8 8 9 10 11
9 10 10 5 4 6 3 2 1 1 2 2 1 2 2 1 2 3 3 2 2 6 7 9 6 5 4 2 1 2 3 5 5 5 4 3 1 1 3 3 3 3 4 6 7 9 8 8 9 9 9 10 9 10
3 14 4 3 4 4 3 1 1 2 1 1 2 2 2 3 4 3 4 2 7 8 8 5 4 4 3 5 6 7 4 5 2 2 3 1 3 2 3 3 4 5 5 6 6 8 9 9 9 9 9 9 10 9
14 5 4 3 4 2 3 1 2 3 3 3 2 2 3 3 2 2 4 6 8 7 5 5 4 2 4 1 1 2 5 5 4 4 3 4 3 3 2 4 2 4 6 6 4 7 8 12 10 10 8 9 8 9
6 3 4 3 3 3 1 1 1 1 1 3 4 4 3 3 4 3 7 6 6 2 4 6 4 1 1 2 3 4 5 5 2 2 3 3 1 4 3 3 3 3 4 6 6 7 8 8 11 8 8 9 9 9
5 1 2 4 1 2 4 3 3 3 5 4 4 3 4 4 3 5 6 6 3 4 4 4 4 5 4 2 3 4 2 4 5 4 4 4 3 2 3 2 3 4 1 3 5 7 8 8 8 9 9 9 11 11
4 2 3 1 1 3 2 3 6 5 3 4 4 2 3 3 4 9 5 3 3 4 6 10 9 5 4 6 3 2 4 5 4 2 4 5 4 4 3 1 2 4 1 1 4 7 9 8 9 11 9 11 12 11
1 3 2 1 2 3 4 2 1 2 4 6 5 6 4 5 7 5 2 3 3 4 3 1 5 6 4 4 3 3 3 6 5 4 1 3 3 4 4 4 4 5 2 3 4 5 7 8 7 7 8 7 8 9
3 3 3 4 3 4 4 3 4 6 3 2 5 6 6 7 2 3 3 3 4 5 3 3 3 1 2 1 3 6 2 1 2 2 2 2 2 3 4 3 2 5 2 2 4 5 6 7 4 4 4 4 6 8
3 3 2 5 4 4 5 4 3 1 1 2 3 4 4 2 2 3 3 3 4 3 4 3 2 2 2 3 2 1 5 4 5 5 3 4 4 4 4 3 2 2 2 2 7 6 8 2 3 2 3 2 3 4
2 1 3 4 4 4 2 1 2 2 1 2 3 4 3 3 2 2 3 4 5 5 5 2 1 3 2 2 1 2 3 4 5 4 5 5 6 2 3 3 3 3 2 0 2 4 5 5 6 5 5 5 4 4
2 1 3 4 6 3 1 1 1 1 1 2 0 2 3 5 5 2 2 3 4 4 4 3 1 2 2 1 1 1 3 2 6 7 3 3 3 3 3 4 3 2 2 2 3 3 2 3 4 4 5 6 7 5
1 2 3 5 6 1 0 3 2 2 1 2 1 2 2 3 4 2 2 3 4 3 4 4 2 2 3 2 2 1 4 0 0 5 7 3 3 3 3 2 2 2 2 1 3 3 4 5 4 3 3 4 5 5
3 2 3 4 5 5 4 6 3 3 2 2 1 1 1 1 2 4 0 1 1 3 4 3 3 3 3 3 2 0 2 1 1 5 6 5 4 4 3 2 1 2 2 1 1 2 4 5 4 3 2 1 2 4
Wind_Direction
333 336 333 335 332 333 332 331 330 327 335 325 325 332 331 318 319 323 291 282 265 281 272 223 236 225 54 149 213 251 12 327 5 64 139 229 216 269 319 295 297 223 314 314 334 318 206 340 31 48 111 140 140 274
330 334 335 330 331 329 332 330 332 330 336 326 335 332 334 333 329 326 305 248 264 246 276 295 241 230 214 199 187 210 195 188 238 67 354 283 358 318 191 272 329 289 85 300 29 11 40 48 113 112 91 110 36 336
327 334 332 331 331 331 331 331 330 329 331 333 331 332 336 335 327 321 255 312 308 284 318 342 311 302 227 207 193 215 264 226 291 177 177 230 243 185 231 250 199 210 172 168 38 139 154 100 53 42 31 27 5 353
321 328 331 331 329 329 330 330 329 331 333 331 330 332 333 330 321 319 174 229 356 291 77 291 318 15 314 265 233 229 247 120 121 109 194 214 200 233 274 276 219 202 147 198 247 84 101 99 76 44 25 7 343 340
316 320 328 328 328 328 329 329 329 333 332 329 326 328 331 327 322 18 171 136 55 338 283 280 312 6 342 325 262 219 231 148 204 208 222 250 227 186 237 92 266 47 212 171 228 32 340 72 97 39 15 357 341 338
309 314 321 326 328 329 329 326 331 333 329 328 325 327 329 323 345 30 5 327 353 346 59 328 297 334 321 334 342 239 201 199 207 182 230 257 238 229 218 195 65 55 47 17 44 329 308 321 114 34 352 339 336 324
306 313 319 323 327 328 327 326 332 329 327 326 325 327 325 320 39 119 162 318 323 277 84 331 335 324 323 319 343 2 346 308 201 218 230 218 276 328 225 258 82 41 11 66 30 317 226 35 328 336 328 326 323 301
304 311 320 323 325 327 328 328 332 325 327 326 326 322 320 3 70 342 318 356 358 89 59 71 282 6 6 319 335 350 355 6 351 230 349 215 352 48 259 118 2 356 321 152 16 8 259 295 299 295 310 299 300 302
300 311 316 319 323 326 328 332 326 328 329 329 323 322 43 35 27 259 313 30 41 86 113 78 113 271 352 307 287 335 52 339 288 149 269 71 312 227 205 162 215 327 350 291 308 287 264 245 273 281 276 279 276 288
293 302 306 313 321 328 331 333 323 334 336 331 17 39 351 263 307 338 9 19 16 348 24 100 351 280 354 351 305 349 14 263 317 263 322 87 257 297 241 230 252 284 285 313 331 327 319 281 285 294 290 282 275 281
289 295 302 308 318 341 333 328 328 351 0 20 22 288 251 332 47 31 28 64 325 14 9 239 168 300 334 50 264 353 278 292 14 264 110 304 280 230 219 228 237 239 248 248 234 265 268 265 280 283 282 274 274 272
287 289 299 308 321 341 331 333 327 35 273 262 303 6 4 32 29 76 295 328 63 234 310 113 271 260 294 360 76 325 241 30 240 307 57 284 256 242 209 238 250 250 258 263 236 261 265 257 259 265 271 270 263 266
285 285 291 300 308 308 323 335 349 344 4 29 47 27 44 308 28 123 249 297 296 209 265 345 317 6 340 35 21 34 23 236 8 42 232 231 268 269 249 259 269 255 254 252 270 254 260 266 266 255 270 266 267 269
279 284 288 297 290 286 326 335 0 19 62 96 123 281 161 272 239 184 182 181 210 120 148 140 312 62 277 11 254 64 247 51 2 347 238 260 233 248 264 252 303 289 275 266 274 278 274 274 274 270 262 270 275 272
273 282 292 271 252 290 330 21 70 58 102 205 109 235 218 216 39 194 242 97 230 134 118 57 25 66 331 13 51 341 354 266 208 228 228 235 243 257 282 278 281 293 291 285 291 294 291 292 292 292 288 278 269 271
271 286 231 205 232 342 85 90 54 89 57 138 201 159 153 43 256 262 184 195 192 123 74 58 107 49 282 151 49 228 127 230 247 217 230 249 260 263 268 279 278 275 279 285 286 286 286 288 291 291 294 289 282 273
272 211 184 176 108 97 76 83 73 53 214 203 242 225 177 360 159 151 147 173 149 101 167 122 124 220 97 23 264 198 215 221 212 242 231 224 250 269 268 276 278 276 283 286 287 291 289 289 289 290 289 289 284 277
225 196 167 143 124 88 31 46 87 124 248 186 209 178 207 48 116 143 170 158 127 138 137 204 121 134 208 194 240 233 232 252 223 236 241 257 247 256 241 264 280 286 292 294 294 298 297 294 290 288 288 292 294 292
164 153 153 145 133 104 100 320 86 239 227 175 198 171 94 107 89 7 83 83 84 127 114 64 121 207 227 219 213 233 232 201 235 246 242 249 239 254 276 272 269 282 291 299 300 300 297 289 285 290 290 293 291 294
132 129 145 134 125 102 340 286 2 173 243 218 122 160 91 81 102 92 91 54 83 102 82 208 216 211 196 217 202 189 190 165 131 321 276 246 218 223 264 285 293 299 301 307 303 302 302 302 301 301 300 298 298 298
108 139 105 76 55 59 116 157 273 229 143 187 157 159 109 173 148 164 160 154 63 214 234 227 234 235 210 233 292 154 178 155 194 187 234 293 241 269 275 272 275 293 297 309 309 311 316 310 311 310 309 306 300 296
128 115 94 30 86 25 65 326 333 119 174 70 157 194 170 187 179 191 122 175 232 228 209 197 226 193 195 239 218 209 217 172 189 245 303 320 299 321 309 285 320 314 311 306 306 307 311 312 314 312 309 309 315 312
98 91 71 69 81 68 259 316 182 180 217 174 132 216 219 194 103 156 240 228 254 227 200 195 229 200 165 306 9 276 221 174 206 216 223 224 233 247 275 289 264 291 307 305 297 309 309 312 310 311 314 319 321 323
64 77 139 190 125 217 1 230 253 185 148 215 198 223 204 140 144 208 255 246 238 152 179 196 179 146 49 35 257 212 217 185 185 292 216 155 246 279 221 253 271 258 249 287 308 310 309 307 315 322 330 331 332 331
108 254 104 228 70 146 209 187 201 196 256 178 211 210 180 175 203 224 241 259 220 226 173 143 195 216 183 189 286 257 200 167 172 206 255 180 148 9 328 290 277 262 246 340 322 318 313 319 323 332 337 339 341 344
197 117 195 254 169 216 220 240 206 221 210 204 216 108 197 198 223 241 231 238 240 211 174 184 180 172 236 204 193 243 230 162 122 125 268 190 176 157 192 205 323 300 212 248 297 307 312 317 323 334 342 345 345 347
251 354 13 80 317 306 279 241 287 261 234 214 170 170 181 221 241 251 323 12 321 359 321 272 179 185 174 160 182 208 175 166 152 181 260 190 205 186 163 176 217 236 259 290 290 280 290 301 308 333 337 339 344 349
40 22 329 348 268 200 261 272 231 231 243 101 131 193 204 214 281 351 348 1 344 330 341 355 350 26 91 358 124 118 94 255 71 56 26 307 247 240 223 214 249 284 307 275 278 281 271 281 280 309 325 329 338 347
27 354 296 278 259 230 229 238 276 25 348 202 247 248 247 312 346 319 326 326 310 324 310 300 298 359 44 74 43 74 119 155 143 139 197 267 319 272 200 242 266 273 276 285 300 301 287 307 232 283 301 299 304 321
3 15 292 273 261 260 203 209 289 14 303 302 307 294 261 253 264 344 313 318 345 329 310 302 252 177 220 179 311 285 177 175 250 168 160 199 221 214 177 224 250 257 246 294 345 327 357 24 6 13 17 20 9 7
345 292 260 240 265 266 299 315 240 242 272 269 360 259 287 311 314 263 288 345 317 311 303 286 263 183 199 140 222 299 350 160 233 246 186 137 135 168 216 232 231 232 234 127 97 95 83 55 43 23 22 31 19 30
258 268 304 283 279 7 281 339 298 290 241 269 246 218 261 254 289 288 34 332 335 338 342 335 340 13 337 297 212 209 131 46 349 260 217 186 191 201 215 234 252 239 210 135 114 113 106 112 91 63 37 14 8 14
274 232 242 269 293 308 358 332 268 269 209 256 272 288 356 15 311 319 336 174 298 292 308 304 301 318 335 2 4 20 108 108 332 269 235 187 186 184 175 182 189 272 274 182 167 148 143 133 128 134 131 73 347 343